METEOR 2-20 DEB, 59997

Orbit data source: Space-Track

METEOR 2-20 DEB, 59997 is space debris in LEO originally from a launch on Fri, 28 Sep 1990 UTC launched from the Plesetsk Missile And Space Complex (PKMTR). Debris objects in space refer to the collection of defunct objects orbiting the Earth. Examples of debris include non-operational satellites, rocket bodies, and fragments generated from explosions, collisions, or faulty payload assembly.

Loading next visibility...
Identifier
59997, 1990-086G
Orbit
LEO
Country
Flag of CISCIS
Related business
Manufacturer
Unknown
Mission
Spacecraft
Bus & Motor
Unknown
Mass
Unknown
Launch date (UTC)
1990-09-28 (36 years ago)
Launch vehicle
Unknown
Launch site
Plesetsk Missile And Space Complex (PKMTR)
Object type
Payload
Rocket body
Debris
Shape & HBR
Unknown shape, 0.1 m
Radar Cross Section
Medium (>0.1 m² and <1 m²)

Expand to show TLE details & history
Last TLE update: 2 days ago

TLE from 2 days ago
0 METEOR 2-20 DEB
1 59997U 90086G   26171.02162532  .00001379  00000-0  10942-2 0  9998
2 59997  82.5200 190.7198 0018842 336.2861  23.7432 13.90599403135503
Epoch: 2026-06-20T00:31Z
TLE epoch observation values (Epoch: 2026-06-20T00:31:08.427Z)
Latitude
-0.00007°
Longitude
-85.30755°
Altitude
916.844 km
Speed
7.4 km/s
True Right ascension
12h 42m 52s
True Declination
0° 00' 00"
Sunlit
Object was in daylight at epoch
Visualization orbit readout
Latitude
Unknown
Longitude
Unknown
Altitude
Unknown
Speed
Unknown
Apparent Right ascension
Unknown
Apparent Declination
Unknown
Sunlit
N/A
Visualization observer readout
Local Sidereal Time
21:25:59
Azimuth
Unknown
Elevation
Unknown
Doppler factor
Unknown
Orbital elements
Apogee altitude
937.433 km
Perigee altitude
909.917 km
Semi-major axis
7,301.812 km
Eccentricity
0.00188
Inclination
82.52°
RAAN
190.7198°
Arg. of periapsis
336.2861°
True anomaly
23.83032°
Mean anomaly
23.7432°
Eccentric anomaly
23.78674°
Mean motion
3.47854 °/min
Orbital period
103.49 mins
BSTAR
0.0010942
Loading maneuver chart data...
Computing Atmospheric mass density...
Loading historical data...
Loading historical data...
Loading historical data...
Loading historical data...
Loading historical data...
Loading historical data...
Loading historical data...

Documentation

Showing up to 5 results
|